#timestamp,LO_Frequency,Hit,StdDev 
1584358555.0,286046930.0,P
1584358555.9,286046930.0,P
1584358575.8,286046930.1,P
1584358595.6,286046929.7,Y
1584358615.5,286046996.5,P
1584358635.3,286046996.5,N
1584358655.1,286046997.3,N
1584358675.9,286046995.0,N
1584358695.7,286046995.6,N
1584358715.5,286046995.2,N
1584358735.4,286046996.1,N
1584358755.2,286046994.1,N
1584358775.1,286046993.8,N
1584358806.0,286046992.7,E
1584358815.0,286046995.5,N
1584358815.9,286046995.5,P
1584358835.8,286046998.7,P
1584358855.6,286046999.4,N
1584358875.4,286046999.4,N
1584358895.3,286046997.7,N
1584358915.1,286046996.8,N
1584358935.8,286046997.9,N
1584358955.7,286046995.5,Y
1584358975.5,286046996.8,P
1584358995.4,286046999.4,N
1584359015.2,286046997.7,N
1584359035.0,286046997.7,N
1584359035.9,286046997.7,N
1584359055.8,286046997.4,Y
1584359075.6,286046999.0,P
1584359095.4,286046999.2,N
1584359115.3,286046996.9,P
1584359135.1,286046996.8,Y
1584359155.9,286046996.9,P
1584359175.7,286046998.9,N
1584359195.5,286046999.4,N
1584359215.4,286046995.2,Y
1584359235.2,286046996.9,P
1584359255.1,286046996.8,P
1584359256.0,286046996.8,P
1584359275.8,286046996.7,Y
1584359295.6,286046998.5,P
1584359315.5,286046998.5,N
1584359335.3,286047001.2,N
1584359355.1,286046998.6,N
1584359375.9,286046998.7,N
1584359395.7,286046996.8,N
1584359415.6,286046997.4,N
1584359435.4,286046997.4,N
1584359455.2,286046997.8,N
1584359475.1,286046997.9,N
1584359476.0,286046997.9,N
1584359495.8,286046995.1,Y
1584359515.7,286046996.9,P
1584359535.5,286046996.7,P
1584359555.3,286046997.3,P
1584359575.2,286046997.4,Y
1584359595.0,286046998.5,P
1584359595.9,286046998.5,N
1584359615.7,286046996.5,P
1584359635.6,286046996.8,Y
1584359655.4,286047000.9,P
1584359675.3,286047000.2,N
1584359695.1,286047002.4,N
1584359696.0,286047002.4,N
1584359715.8,286047002.2,N
1584359735.7,286047002.6,N
1584359755.5,286047001.9,N
1584359775.3,286047000.1,N
1584359795.2,286047000.5,N
1584359815.0,286047000.9,N
1584359815.9,286047000.9,N
1584359835.8,286047000.1,N
1584359855.6,286046998.1,N
1584359875.4,286046998.5,N
1584359895.3,286046998.7,N
1584359915.1,286046998.6,N
1584359935.9,286046998.9,N
1584359955.7,286046999.2,N
1584359975.5,286046999.4,N
1584359995.4,286046996.5,N
